Flag for United Kingdom Weather past 2 weeks in Kingston upon Hull, England, United Kingdom

Now
50 °F

Haze.


Feels Like: 48 °F
Forecast: 49 / 65 °F
Wind: 6 mph from Southwest

Location: Humberside

Current Time: Sep 22, 2014 at 8:18:06 AM

Latest Report: Sep 22, 2014 at 7:50 AM


Visibility: 2 mi

Pressure: 30.27 "Hg

Humidity: 82%

Dew point: 45 °F

Location of Kingston upon HullLocation

Historic Weather in Kingston upon Hull — Graph

°F

Kingston upon Hull temperature yesterday

Maximum temperature yesterday: 61 °F (at 2:50 PM)
Minimum temperature yesterday: 48 °F (at 11:50 PM)
Average temperature yesterday: 55 °F

Past Weeks' High & Low Weather Summary

 TemperatureHumidityPressure
High70 °F (Sep 9, 4:50 PM)100% (Sep 7, 6:20 AM)30.39 "Hg (Sep 7, 6:20 AM)
Low45 °F (Sep 9, 6:20 AM)46% (Sep 7, 2:50 PM)29.86 "Hg (Sep 18, 2:20 PM)
Average59 °F88%30.13 "Hg
* Reported Sep 7 6:20 AM — Sep 22 6:50 AM, Kingston upon Hull, Weather by CustomWeather, © 2014

Note: Actual official high and low records may vary slightly from our data, if they occured in-between our weather recording intervals... More about our weather records

Advertising

Kingston upon Hull weather history for previous 24 hours

 ConditionsComfort  
Time TempWeatherWind HumidityBarometerVisibility
6:50 AM
Sep 22
50 °FPassing clouds.8 mph82%30.27 "Hg2 mi
6:20 AM48 °FPassing clouds.7 mph87%30.30 "Hg2 mi
5:50 AM48 °FPassing clouds.6 mph87%30.30 "Hg2 mi
5:20 AM48 °FPassing clouds.6 mph87%30.30 "Hg2 mi
4:50 AM48 °FPassing clouds.6 mph87%30.30 "Hg2 mi
4:20 AM46 °FPassing clouds.7 mph93%30.30 "Hg2 mi
3:50 AM48 °FPassing clouds.7 mph82%30.30 "Hg2 mi
3:20 AM48 °FOvercast.7 mph87%30.30 "Hg2 mi
2:50 AM46 °FPassing clouds.8 mph93%30.33 "Hg2 mi
2:20 AM46 °FPassing clouds.9 mph93%30.33 "Hg2 mi
1:50 AM48 °FPassing clouds.8 mph87%30.33 "Hg2 mi
12:50 AM52 °FHaze.7 mph82%30.33 "Hg2 mi
12:20 AM52 °FHaze.8 mph82%30.33 "Hg2 mi
11:50 PM
Sep 21
48 °FHaze.6 mph94%30.33 "Hg2 mi
11:20 PM50 °FHaze.5 mph88%30.30 "Hg2 mi
10:50 PM52 °FHaze.5 mph82%30.30 "Hg2 mi
10:20 PM54 °FPassing clouds.7 mph77%30.33 "Hg3 mi
9:20 PM55 °FPassing clouds.7 mph72%30.33 "Hg4 mi
8:50 PM55 °FPassing clouds.7 mph72%30.33 "Hg6 mi
8:20 PM55 °FPassing clouds.6 mph72%30.33 "Hg6 mi
7:50 PM55 °FBroken clouds.9 mph77%30.33 "Hg6 mi
7:20 PM57 °FBroken clouds.12 mph72%30.30 "Hg6 mi
6:50 PM57 °FBroken clouds.14 mph77%30.30 "Hg6 mi
6:20 PM57 °FBroken clouds.10 mph77%30.30 "Hg6 mi
5:50 PM59 °FBroken clouds.12 mph72%30.30 "Hg6 mi
5:20 PM59 °FBroken clouds.10 mph77%30.30 "Hg6 mi
4:50 PM57 °FLight rain. Broken clouds.10 mph82%30.30 "Hg6 mi
4:20 PM59 °FLight rain. Broken clouds.13 mph72%30.30 "Hg6 mi
3:20 PM59 °FBroken clouds.15 mph72%30.30 "Hg4 mi
2:50 PM61 °FBroken clouds.13 mph68%30.30 "Hg4 mi
2:20 PM59 °FBroken clouds.13 mph72%30.30 "Hg4 mi
1:50 PM59 °FLight rain. Broken clouds.10 mph77%30.30 "Hg4 mi
1:20 PM59 °FLight rain. Broken clouds.13 mph77%30.30 "Hg5 mi
12:50 PM57 °FBroken clouds.10 mph82%30.27 "Hg5 mi
12:20 PM59 °FBroken clouds.13 mph77%30.27 "Hg6 mi
11:50 AM59 °FBroken clouds.12 mph77%30.27 "Hg6 mi
11:20 AM59 °FPartly sunny.14 mph82%30.27 "Hg6 mi
10:50 AM57 °FPartly sunny.16 mph82%30.27 "Hg6 mi
10:20 AM57 °FBroken clouds.14 mph88%30.27 "HgN/A
9:50 AM57 °FPartly sunny.9 mph88%30.27 "Hg6 mi
9:20 AM55 °FPartly sunny.9 mph88%30.24 "Hg5 mi
8:50 AM55 °FPassing clouds.8 mph88%30.24 "Hg4 mi
8:20 AM54 °FHaze.8 mph88%30.24 "Hg3 mi
Weather by CustomWeather, © 2014

See weather overviewHow to use our weather pages